Overview Statistics Trail Chart Weather Telemetry Raw packets
 

This is the latest recevied weather packets stored in our database for station/object N5DGC. If no packets are shown the sender has not sent any weather packets the latest 10 day(s).

<< 96 97 98 99 100 101 102 >>
Time Temp. Humidity Pressure Rain* Wind** Luminosity Snow
1787888174 24.44° C 44% 1243.1 hPa 0 mm - 0 W/m² -
1787887869 23.89° C 45% 1243 hPa 0 mm - 0 W/m² -
1787887564 23.89° C 43% 1243.1 hPa 0 mm - 0 W/m² -
1787887260 23.89° C 46% 1242.9 hPa 0 mm - 0 W/m² -
1787886954 24.44° C 45% 1242.5 hPa 0 mm - 0 W/m² -
1787886654 24.44° C 44% 1242.5 hPa 0 mm - 0 W/m² -
1787886349 24.44° C 44% 1242.3 hPa 0 mm - 0 W/m² -
1787886045 24.44° C 44% 1242.1 hPa 0 mm - 0 W/m² -
1787885743 24.44° C 43% 1242.2 hPa 0 mm - 0 W/m² -
1787885437 24.44° C 44% 1242.2 hPa 0 mm - 0 W/m² -
1787885137 24.44° C 46% 1242.2 hPa 0 mm - 0 W/m² -
1787884832 24.44° C 44% 1242.3 hPa 0 mm - 0 W/m² -
1787884532 24.44° C 45% 1242.2 hPa 0 mm - 0 W/m² -
1787884228 25° C 46% 1242.2 hPa 0 mm - 0 W/m² -
1787883923 25° C 45% 1242.3 hPa 0 mm - 0 W/m² -
1787883618 25° C 45% 1242.3 hPa 0 mm - 0 W/m² -
1787883314 25° C 46% 1241.9 hPa 0 mm - 0 W/m² -
1787883012 25° C 46% 1241.7 hPa 0 mm - 0 W/m² -
1787882708 25.56° C 46% 1241.9 hPa 0 mm - 0 W/m² -
1787882405 25° C 44% 1241.7 hPa 0 mm - 0 W/m² -
1787882100 25° C 46% 1241.7 hPa 0 mm - 0 W/m² -
1787881795 23.89° C 48% 1241.7 hPa 0.51 mm - 0 W/m² -
1787881495 23.89° C 55% 1241.7 hPa 1.78 mm - 1 W/m² -
1787881192 24.44° C 52% 1241.9 hPa 1.78 mm - 4 W/m² -
1787880887 25.56° C 45% 1242.3 hPa 0 mm - 5 W/m² -

* Rain latest hour (hover to see other rain measurements)
** Current wind speed in m/s (hover to see current wind gust speed)